[Iaude] MPEC J102: 2024 JM2 [a=0.99,e=0.20,i=20.0,H=23.9]
    mpec at cfa.harvard.edu 
    mpec at cfa.harvard.edu
       
    Mon May  6 16:48:03 EDT 2024
    
    
  
M.P.E.C. 2024-J102                                  Issued 2024 May 6, 20:46 UT
     The Minor Planet Electronic Circulars contain information on unusual
         minor planets, routine data on comets and natural satellites,
         and occasional editorial announcements.  They are published
    on behalf of Division F of the International Astronomical Union by the
          Minor Planet Center, Smithsonian Astrophysical Observatory,
                          Cambridge, MA 02138, U.S.A.
			  
             Prepared using the Tamkin Foundation Computer Network
                              MPC at CFA.HARVARD.EDU
            URL https://www.minorplanetcenter.net/    ISSN 1523-6714
                                    2024 JM2                                    
Observations:
     K24J02M*1C2024 05 05.21902609 54 39.496+18 28 50.27         17.76GVEJ102703
     K24J02M 1C2024 05 05.22134609 54 47.707+18 30 33.30         17.78GVEJ102703
     K24J02M 1C2024 05 05.22366909 54 55.922+18 32 12.88         17.18GVEJ102703
     K24J02M 1C2024 05 05.22599109 55 03.986+18 33 53.50         17.49GVEJ102703
     K24J02M mC2024 05 05.26804209 57 31.421+19 03 52.34         18.20GVEJ102I52
     K24J02M mC2024 05 05.26821609 57 32.029+19 03 59.94         18.32GVEJ102I52
     K24J02M mC2024 05 05.26838509 57 32.630+19 04 06.96         18.66GVEJ102I52
     K24J02M mC2024 05 05.26855509 57 33.228+19 04 14.23         18.67GVEJ102I52
     K24J02M KB2024 05 05.81901510 29 26.767+24 57 26.10         17.9 GXEJ102L34
     K24J02M NC2024 05 05.86813510 32 02.11 +25 23 45.6          18.1 GVEJ102L01
     K24J02M NC2024 05 05.87040210 32 09.26 +25 24 59.3          18.1 GVEJ102L01
     K24J02M hC2024 05 05.87220710 32 14.95 +25 25 58.8          18.3 GVEJ102L01
     K24J02M hC2024 05 05.87400910 32 20.52 +25 26 57.5          17.9 GVEJ102L01
     K24J02M hC2024 05 05.87513910 32 24.08 +25 27 34.0          17.9 GVEJ102L01
     K24J02M hC2024 05 05.87627210 32 27.63 +25 28 10.4          17.9 GVEJ102L01
     K24J02M KB2024 05 05.87773510 32 30.720+25 29 45.89         18.1 GXEJ102L34
     K24J02M  C2024 05 05.89521010 33 25.21 +25 38 08.7          17.6 GVEJ102L54
     K24J02M KC2024 05 05.89530310 33 27.96 +25 38 38.2          17.9 GVEJ102104
     K24J02M  C2024 05 05.89592010 33 27.64 +25 38 35.5          17.5 GVEJ102L54
     K24J02M  C2024 05 05.89748810 33 32.59 +25 39 23.7          17.6 GVEJ102L54
     K24J02M KC2024 05 05.89885610 33 39.08 +25 40 32.3          17.9 GVEJ102104
     K24J02M KC2024 05 05.90063610 33 44.65 +25 41 29.4          18.1 GVEJ102104
     K24J02M KB2024 05 05.91855710 35 00.499+25 58 39.00         18.4 VZEJ102Y05
     K24J02M KC2024 05 05.91916710 34 40.78 +25 50 25.9          17.5 GXEJ102L18
     K24J02M KB2024 05 05.92103010 35 08.030+25 59 59.24         18.1 VZEJ102Y05
     K24J02M KB2024 05 05.92347110 35 15.444+26 01 17.44         17.8 VZEJ102Y05
     K24J02M KC2024 05 05.92417310 34 56.71 +25 53 02.4          17.9 GXEJ102L18
     K24J02M KC2024 05 05.92918110 35 12.53 +25 55 40.4          17.6 GXEJ102L18
     K24J02M KC2024 05 05.94883910 36 20.220+26 06 28.26         18.0 GVEJ102Z80
     K24J02M KC2024 05 05.95321810 36 33.862+26 08 44.95         17.8 GVEJ102Z80
     K24J02M KB2024 05 06.11389 10 45 01.95 +27 33 22.8          17.5 GXEJ102W42
     K24J02M KB2024 05 06.11845 10 45 15.39 +27 35 34.4          17.6 GXEJ102W42
     K24J02M KB2024 05 06.12312 10 45 29.12 +27 37 48.1          17.7 GXEJ102W42
     K24J02M mC2024 05 06.16990510 47 58.816+27 59 53.74         18.54GVEJ102I52
     K24J02M mC2024 05 06.17007510 47 59.287+27 59 58.60         18.30GVEJ102I52
     K24J02M mC2024 05 06.17024510 47 59.788+28 00 03.42         18.24GVEJ102I52
     K24J02M mC2024 05 06.17041710 48 00.284+28 00 08.28         18.20GVEJ102I52
     K24J02M  C2024 05 06.83784711 19 21.20 +32 24 14.8          18.3 GVEJ102L54
     K24J02M  C2024 05 06.84150811 19 30.13 +32 25 26.6          18.1 GVEJ102L54
     K24J02M  C2024 05 06.84464411 19 38.01 +32 26 26.5          18.2 GVEJ102L54
Observer details:
104 San Marcello Pistoiese.  Observers P. Bacci, M. Maestripieri.  Measurers
    P. Bacci, L. Tesi, G. Fagioli.  0.60-m F4 Reflector + CCD.
703 Catalina Sky Survey.  Observer T. Beuden.  Measurers T. Beuden, V. F.
    Carvajal, D. Fay, J. B. Fazekas, D. C. Fuls, A. R. Gibbs, A. D. Grauer, H.
    Groeller, J. K. Hogan, R. A. Kowalski, S. M. Larson, G. J. Leonard, D.
    Rankin, R. L. Seaman, F. C. Shelly, K. W. Wierzchos.  0.68-m Schmidt + 10K
    CCD.
I52 Steward Observatory, Mt. Lemmon Station.  Observers V. F. Carvajal, R. A.
    Kowalski.  Measurers T. Beuden, V. F. Carvajal, D. Fay, J. B. Fazekas, D.
    C. Fuls, A. R. Gibbs, A. D. Grauer, H. Groeller, J. K. Hogan, R. A.
    Kowalski, S. M. Larson, G. J. Leonard, D. Rankin, R. L. Seaman, F. C.
    Shelly, K. W. Wierzchos.  1.0-m prime focus + CCD.
L01 Visnjan Observatory, Tican.  Observer K. Korlevic.  1.0-m f/2.9 reflector
    + CCD.
L18 QOS Observatory, Zalistsi.  Observer B. O. Basiev.  Measurer A. M.
    Kozhukhov.  0.50-m f/3.8 reflector + CCD.
L34 Galhassin Robotic Telescope, Isnello.  Observer A. Nastasi.  0.40-m f/3.8
    400mm Reflector + CMO.
L54 Berthelot Observatory, Hunedoara.  Observers A. Sonka, A. Nedelcu.
    Measurer A. Sonka.  0.50-m f/8 RC + CCD.
W42 Mind's Eye Observatory, Vero Beach.  Observer J. T. Grage.  0.30-m f/3.3
    SCT + CMO.
Y05 SONEAR Wykrota-CEAMIG, Serra da Piedade.  Observers C. Jacques, A.
    Caetano, E. Pimentel.  Measurer C. Jacques.  0.45-m f/2.9 reflector + CMO.
Z80 Northolt Branch Observatory.  Observer G. Wells.  0.25-m f/8.0 Ritchey-
    Chretien + CCD.
Orbital elements:
2024 JM2                                                 Earth MOID = 0.0022 AU
Epoch 2024 Mar. 31.0 TT = JDT 2460400.5                 MPC                     
M  48.58240              (2000.0)            P               Q                  
n   0.99367986     Peri.  253.88177     -0.42020503     -0.87627044             
a   0.9945770      Node   223.51721     +0.90676802     -0.39556494             
e   0.2002965      Incl.   20.02160     +0.03463359     -0.27509725             
P   0.99           H   23.93          G   0.15           U   7                  
Residuals in seconds of arc
240505 703  1.2-  0.9-    240505 L01  0.9-  0.6-    240505 Z80  0.5+  0.8+
240505 703  0.1+  1.5+    240505 L34  0.4+  0.1-    240505 Z80  0.3+  0.6+
240505 703  1.4+  0.6+    240505 L54 (4.8+  1.8+)   240506 W42  0.3-  0.2-
240505 703  0.5+  0.8+    240505 104  0.2-  0.1+    240506 W42  0.1+  0.2+
240505 I52  0.0   0.3-    240505 L54 (7.4+  5.8+)   240506 W42  0.1+  0.1-
240505 I52  0.0   0.1-    240505 L54 (7.5+  3.8+)   240506 I52  0.1+  0.2-
240505 I52  0.0   0.2-    240505 104  0.2-  0.1+    240506 I52  0.2-  0.1-
240505 I52  0.0   0.2-    240505 104  0.2-  0.1+    240506 I52  0.1-  0.1-
240505 L34  0.2+  0.1-    240505 Y05  0.4+  0.7+    240506 I52  0.1-  0.1-
240505 L01  0.5-  0.1-    240505 L18  0.3-  1.1+    240506 L54  1.0+  0.1-
240505 L01  0.1-  0.5-    240505 Y05  0.5+  1.1+    240506 L54  0.9-  0.3+
240505 L01  0.2+  0.1+    240505 Y05  0.3+  0.6+    240506 L54  0.4+  0.8-
240505 L01  1.0-  0.2+    240505 L18  0.9+  0.5-
240505 L01  0.9-  0.2-    240505 L18  0.6+  0.2-
Ephemeris:
2024 JM2                 a,e,i = 0.99, 0.20, 20                  q = 0.7954
Date    TT    R. A. (2000) Decl.     Delta      r    Elong.  Phase     V
2024 04 06    03 19 15.4 -40 21 51   0.1901  0.9102    56.7   113.3    24.5
...
2024 04 21    03 57 49.7 -41 08 32   0.09094 0.9627    60.0   115.3    23.1
...
2024 04 29    05 15 04.8 -35 59 17   0.03924 0.9907    64.4   113.6    21.3
...
2024 05 05    09 41 32.3 +15 44 33   0.01872 1.0113    97.8    81.2    18.2
2024 05 06    10 39 13.9 +26 36 13   0.02183 1.0146   104.9    73.9    18.2
2024 05 07    11 26 16.9 +33 16 29   0.02636 1.0180   109.1    69.4    18.5
...
2024 05 13    13 31 16.6 +42 25 47   0.06281 1.0378   114.2    62.6    20.2
...
2024 05 21    14 14 25.9 +42 44 28   0.1156  1.0630   113.2    61.0    21.6
...
2024 06 05    14 41 53.6 +40 48 41   0.2140  1.1054   109.7    59.8    22.9
A. U. Tomatic                (C) Copyright 2024 MPC           M.P.E.C. 2024-J102
    
    
More information about the Iaude
mailing list